Weather History for Winnemucca, NV

Change the Weather History Date:

Wednesday, February 27, 2013

  Actual Average Record
Temperature  
Mean Temperature 31 °F 38 °F  
Max Temperature 50 °F 51 °F 71 °F (1986)
Min Temperature 12 °F 25 °F -22 °F (1890)
Degree Days  
Heating Degree Days 34 27  
Month to date heating degree days 856 809  
Since 1 July heating degree days 4744 4562  
Cooling Degree Days 0 0  
Month to date cooling degree days 0 0  
Year to date cooling degree days 0 0  
Moisture  
Dew Point 11 °F    
Average Humidity 51    
Maximum Humidity 84    
Minimum Humidity 18    
Precipitation  
Precipitation 0.00 in 0.03 in 0.52 in (1902)
Month to date precipitation 0.09 0.64  
Year to date precipitation 0.46 1.51  
Snow  
Snow 0.00 in 0.10 in 5.20 in (1922)
Month to date snowfall 0.7 3.3  
Since 1 July snowfall 21.9 15.9  
Snow Depth 0.00 in    
Sea Level Pressure  
Sea Level Pressure 30.38 in    
Wind  
Wind Speed 5 mph (SSE)    
Max Wind Speed 13 mph    
Max Gust Speed 17 mph    
Visibility 10 miles    
Events      
T = Trace of Precipitation, MM = Missing Value Source: NWS Daily Summary

Daily Weather History Graph

Daily Weather History Graph

Search for Another Location

Airport:

Trip Planner

Search our weather history database for the weather conditions in past years. The results will help you decide how hot, cold, wet, or windy it might be!

Date:

Astronomy

Feb. 27, 2013 Rise Set
Actual Time 6:27 AM PST 5:40 PM PST
Civil Twilight 6:00 AM PST 6:08 PM PST
Nautical Twilight 5:28 AM PST 6:39 PM PST
Astronomical Twilight 4:56 AM PST 7:11 PM PST
Moon 8:08 PM PST 7:04 AM PST
Length of Visible Light 12h 07m
Length of Day
11h 12m
Waning Gibbous, 96% of the Moon is Illuminated
Feb 27
Waning Gibbous
Mar 4
Last Quarter
Mar 11
New
Mar 19
First Quarter
Mar 27
Full

Hourly Weather History & Observations

Time (PST) Temp. Windchill Dew Point Humidity Pressure Visibility Wind Dir Wind Speed Gust Speed Precip Events Conditions
12:56 AM 16.0 °F 8.8 °F 10.0 °F 77% 30.38 in 10.0 mi SSE 4.6 mph - N/A   Clear
1:56 AM 16.0 °F 8.8 °F 10.0 °F 77% 30.39 in 10.0 mi ESE 4.6 mph - N/A   Clear
2:56 AM 14.0 °F 5.1 °F 9.0 °F 80% 30.39 in 10.0 mi South 5.8 mph - N/A   Clear
3:56 AM 15.1 °F 6.4 °F 10.0 °F 80% 30.39 in 10.0 mi SE 5.8 mph - N/A   Clear
4:56 AM 12.9 °F - 9.0 °F 84% 30.41 in 10.0 mi Calm Calm - N/A   Clear
5:56 AM 14.0 °F 6.5 °F 9.0 °F 80% 30.45 in 10.0 mi SE 4.6 mph - N/A   Clear
6:56 AM 19.9 °F 13.4 °F 12.0 °F 71% 30.45 in 10.0 mi Variable 4.6 mph - N/A   Clear
7:56 AM 27.0 °F 18.7 °F 14.0 °F 58% 30.45 in 10.0 mi ESE 8.1 mph - N/A   Clear
8:56 AM 34.0 °F 28.0 °F 16.0 °F 48% 30.44 in 10.0 mi ESE 6.9 mph - N/A   Clear
9:56 AM 39.9 °F 33.4 °F 14.0 °F 35% 30.40 in 10.0 mi SSE 10.4 mph - N/A   Clear
10:56 AM 43.0 °F 37.7 °F 10.9 °F 27% 30.40 in 10.0 mi South 9.2 mph - N/A   Clear
11:56 AM 45.0 °F - 12.0 °F 26% 30.39 in 10.0 mi Calm Calm - N/A   Clear
12:56 PM 48.9 °F - 12.0 °F 23% 30.37 in 10.0 mi Calm Calm - N/A   Clear
1:56 PM 48.9 °F - 9.0 °F 20% 30.36 in 10.0 mi Variable 4.6 mph - N/A   Clear
2:56 PM 48.0 °F - 8.1 °F 20% 30.35 in 10.0 mi WSW 5.8 mph - N/A   Mostly Cloudy
3:56 PM 48.0 °F - 6.1 °F 18% 30.35 in 10.0 mi South 4.6 mph - N/A   Overcast
4:56 PM 48.0 °F - 8.1 °F 20% 30.35 in 10.0 mi Calm Calm - N/A   Mostly Cloudy
5:56 PM 42.1 °F - 8.1 °F 25% 30.37 in 10.0 mi Calm Calm - N/A   Partly Cloudy
6:56 PM 37.0 °F 31.6 °F 12.0 °F 36% 30.37 in 10.0 mi SE 6.9 mph - N/A   Mostly Cloudy
7:56 PM 36.0 °F 28.5 °F 12.9 °F 39% 30.35 in 10.0 mi South 10.4 mph - N/A   Partly Cloudy
8:56 PM 35.1 °F 28.6 °F 12.9 °F 40% 30.35 in 10.0 mi SSE 8.1 mph - N/A   Clear
9:56 PM 28.0 °F 24.2 °F 12.9 °F 53% 30.37 in 10.0 mi South 3.5 mph - N/A   Clear
10:56 PM 30.9 °F 26.2 °F 14.0 °F 50% 30.36 in 10.0 mi SSE 4.6 mph - N/A   Overcast
11:56 PM 28.0 °F 22.8 °F 15.1 °F 58% 30.36 in 10.0 mi ESE 4.6 mph - N/A   Clear